• In Deutschland
  • Länderverzeichnis
  • Für 7 Tage
  • Wassertemperatur
  • Satellitenkarten
  • Wetterkarte
  • Widgets
  • user-avatar
    Anmelden

    Stündliche Wetter Meerbusch

    Heute, 25 Mai, Freitag

    Zeit Temperatur Niederschläge Wind Luftdruck Luftfeuchtigkeit
    00:00 +17°C° 0 mm 2 m/S 760 mmHg 88%
    01:00 +17°C° 0 mm 2 m/S 760 mmHg 88%
    02:00 +17°C° 0 mm 2 m/S 760 mmHg 89%
    03:00 +16°C° 0 mm 1 m/S 760 mmHg 89%
    04:00 +18°C° 0 mm 1 m/S 760 mmHg 87%
    05:00 +19°C° 0 mm 1 m/S 760 mmHg 84%
    06:00 +20°C° 0 mm 1 m/S 760 mmHg 81%
    07:00 +21°C° 0,1 mm 1 m/S 760 mmHg 74%
    08:00 +23°C° 0,1 mm 1 m/S 760 mmHg 68%
    09:00 +25°C° 0,1 mm 1 m/S 760 mmHg 62%
    10:00 +26°C° 0,2 mm 1 m/S 760 mmHg 57%
    11:00 +27°C° 0,2 mm 1 m/S 760 mmHg 52%
    12:00 +26°C° 0,2 mm 0 m/S 760 mmHg 48%
    13:00 +28°C° 0,2 mm 1 m/S 760 mmHg 48%
    14:00 +28°C° 0,2 mm 1 m/S 759 mmHg 49%
    15:00 +28°C° 0,2 mm 1 m/S 759 mmHg 49%
    16:00 +27°C° 0,2 mm 2 m/S 759 mmHg 54%
    17:00 +26°C° 0,2 mm 2 m/S 760 mmHg 59%
    18:00 +25°C° 0,2 mm 2 m/S 760 mmHg 63%
    19:00 +24°C° 0 mm 2 m/S 760 mmHg 68%
    20:00 +23°C° 0 mm 2 m/S 760 mmHg 72%
    21:00 +21°C° 0 mm 1 m/S 760 mmHg 76%
    22:00 +21°C° 0 mm 1 m/S 761 mmHg 78%
    23:00 +20°C° 0 mm 1 m/S 761 mmHg 81%

    Morgen, 26 Mai, Samstag

    Zeit Temperatur Niederschläge Wind Luftdruck Luftfeuchtigkeit
    00:00 +20°C° 0 mm 1 m/S 761 mmHg 83%
    01:00 +19°C° 0 mm 1 m/S 761 mmHg 84%
    02:00 +19°C° 0 mm 1 m/S 761 mmHg 85%
    03:00 +18°C° 0 mm 1 m/S 761 mmHg 86%
    04:00 +18°C° 0 mm 2 m/S 761 mmHg 84%
    05:00 +19°C° 0 mm 2 m/S 761 mmHg 81%
    06:00 +20°C° 0 mm 2 m/S 762 mmHg 78%
    07:00 +23°C° 0 mm 2 m/S 762 mmHg 71%
    08:00 +24°C° 0 mm 2 m/S 762 mmHg 64%
    09:00 +26°C° 0 mm 3 m/S 762 mmHg 57%
    10:00 +27°C° 0 mm 3 m/S 762 mmHg 54%
    11:00 +28°C° 0 mm 3 m/S 762 mmHg 50%
    12:00 +29°C° 0 mm 3 m/S 762 mmHg 47%
    13:00 +29°C° 0,1 mm 3 m/S 761 mmHg 47%
    14:00 +29°C° 0,1 mm 3 m/S 761 mmHg 48%
    15:00 +29°C° 0,1 mm 3 m/S 761 mmHg 49%
    16:00 +28°C° 0,1 mm 3 m/S 761 mmHg 52%
    17:00 +27°C° 0,1 mm 4 m/S 761 mmHg 56%
    18:00 +26°C° 0,1 mm 4 m/S 761 mmHg 60%
    19:00 +25°C° 0 mm 4 m/S 761 mmHg 63%
    20:00 +23°C° 0 mm 4 m/S 762 mmHg 65%
    21:00 +22°C° 0 mm 3 m/S 762 mmHg 67%
    22:00 +21°C° 0 mm 3 m/S 762 mmHg 69%
    23:00 +20°C° 0 mm 3 m/S 762 mmHg 72%

    übermorgen, 27 Mai, Sonntag

    Zeit Temperatur Niederschläge Wind Luftdruck Luftfeuchtigkeit
    00:00 +20°C° 0 mm 3 m/S 762 mmHg 74%
    01:00 +19°C° 0 mm 3 m/S 762 mmHg 75%
    02:00 +19°C° 0 mm 3 m/S 761 mmHg 76%
    03:00 +18°C° 0 mm 3 m/S 761 mmHg 78%
    04:00 +19°C° 0 mm 3 m/S 761 mmHg 75%
    05:00 +20°C° 0 mm 3 m/S 761 mmHg 73%
    06:00 +20°C° 0 mm 3 m/S 761 mmHg 70%
    07:00 +22°C° 0 mm 3 m/S 761 mmHg 65%
    08:00 +25°C° 0 mm 3 m/S 761 mmHg 60%
    09:00 +26°C° 0 mm 4 m/S 760 mmHg 55%
    10:00 +28°C° 0 mm 3 m/S 760 mmHg 52%
    11:00 +29°C° 0 mm 3 m/S 760 mmHg 49%
    12:00 +30°C° 0 mm 3 m/S 759 mmHg 47%
    13:00 +29°C° 0,6 mm 3 m/S 759 mmHg 51%
    14:00 +29°C° 0,6 mm 3 m/S 759 mmHg 55%
    15:00 +28°C° 0,6 mm 3 m/S 759 mmHg 59%
    16:00 +27°C° 0,3 mm 2 m/S 759 mmHg 62%
    17:00 +26°C° 0,3 mm 2 m/S 759 mmHg 66%
    18:00 +26°C° 0,3 mm 2 m/S 759 mmHg 69%
    19:00 +25°C° 0 mm 2 m/S 759 mmHg 71%
    20:00 +24°C° 0 mm 2 m/S 759 mmHg 74%
    21:00 +23°C° 0 mm 2 m/S 760 mmHg 76%
    22:00 +21°C° 0 mm 2 m/S 759 mmHg 78%
    23:00 +21°C° 0 mm 2 m/S 759 mmHg 79%

    28 Mai, Montag

    Zeit Temperatur Niederschläge Wind Luftdruck Luftfeuchtigkeit
    00:00 +20°C° 0 mm 2 m/S 759 mmHg 81%
    01:00 +20°C° 0 mm 2 m/S 759 mmHg 82%
    02:00 +21°C° 0 mm 1 m/S 759 mmHg 83%
    03:00 +20°C° 0 mm 1 m/S 759 mmHg 84%
    04:00 +21°C° 0 mm 1 m/S 759 mmHg 81%
    05:00 +21°C° 0 mm 2 m/S 759 mmHg 78%
    06:00 +23°C° 0 mm 2 m/S 760 mmHg 76%
    07:00 +25°C° 0 mm 2 m/S 760 mmHg 69%
    08:00 +27°C° 0 mm 2 m/S 760 mmHg 62%
    09:00 +29°C° 0 mm 2 m/S 760 mmHg 56%
    10:00 +30°C° 0 mm 2 m/S 760 mmHg 51%
    11:00 +31°C° 0 mm 2 m/S 759 mmHg 47%
    12:00 +33°C° 0 mm 3 m/S 759 mmHg 43%
    13:00 +33°C° 0 mm 3 m/S 759 mmHg 43%
    14:00 +33°C° 0 mm 3 m/S 758 mmHg 43%
    15:00 +33°C° 0 mm 3 m/S 758 mmHg 44%
    16:00 +31°C° 0,2 mm 3 m/S 758 mmHg 49%
    17:00 +30°C° 0,2 mm 3 m/S 758 mmHg 54%
    18:00 +28°C° 0,2 mm 3 m/S 758 mmHg 60%
    19:00 +27°C° 0,2 mm 3 m/S 758 mmHg 64%
    20:00 +26°C° 0,2 mm 3 m/S 758 mmHg 67%
    21:00 +25°C° 0,2 mm 2 m/S 758 mmHg 71%
    22:00 +24°C° 0,3 mm 2 m/S 758 mmHg 74%
    23:00 +24°C° 0,3 mm 2 m/S 758 mmHg 77%

    29 Mai, Dienstag

    Zeit Temperatur Niederschläge Wind Luftdruck Luftfeuchtigkeit
    00:00 +23°C° 0,3 mm 1 m/S 758 mmHg 80%
    01:00 +22°C° 0,1 mm 1 m/S 758 mmHg 81%
    02:00 +22°C° 0,1 mm 1 m/S 758 mmHg 83%
    03:00 +22°C° 0,1 mm 1 m/S 757 mmHg 84%
    04:00 +22°C° 0 mm 1 m/S 757 mmHg 83%
    05:00 +23°C° 0 mm 2 m/S 757 mmHg 81%
    06:00 +24°C° 0 mm 2 m/S 757 mmHg 79%
    07:00 +25°C° 0 mm 2 m/S 757 mmHg 74%
    08:00 +27°C° 0 mm 2 m/S 756 mmHg 68%
    09:00 +28°C° 0 mm 2 m/S 756 mmHg 63%
    10:00 +29°C° 0,2 mm 2 m/S 756 mmHg 58%
    11:00 +30°C° 0,2 mm 2 m/S 756 mmHg 53%
    12:00 +31°C° 0,2 mm 2 m/S 756 mmHg 48%
    13:00 +32°C° 0,2 mm 2 m/S 755 mmHg 47%
    14:00 +32°C° 0,2 mm 1 m/S 755 mmHg 46%
    15:00 +32°C° 0,2 mm 1 m/S 755 mmHg 45%
    16:00 +31°C° 0,2 mm 2 m/S 755 mmHg 50%
    17:00 +30°C° 0,2 mm 2 m/S 754 mmHg 55%
    18:00 +29°C° 0,2 mm 2 m/S 754 mmHg 60%
    19:00 +28°C° 0,2 mm 2 m/S 754 mmHg 64%
    20:00 +27°C° 0,2 mm 2 m/S 754 mmHg 69%
    21:00 +25°C° 0,2 mm 2 m/S 755 mmHg 73%
    22:00 +25°C° 0 mm 2 m/S 755 mmHg 75%
    23:00 +24°C° 0 mm 1 m/S 754 mmHg 77%

    30 Mai, Mittwoch

    Zeit Temperatur Niederschläge Wind Luftdruck Luftfeuchtigkeit
    00:00 +24°C° 0 mm 1 m/S 754 mmHg 78%
    01:00 +23°C° 0 mm 1 m/S 754 mmHg 80%
    02:00 +23°C° 0 mm 1 m/S 754 mmHg 82%
    03:00 +22°C° 0 mm 1 m/S 754 mmHg 83%
    04:00 +23°C° 0 mm 1 m/S 754 mmHg 81%
    05:00 +24°C° 0 mm 1 m/S 754 mmHg 79%
    06:00 +25°C° 0 mm 1 m/S 754 mmHg 77%
    07:00 +26°C° 0,1 mm 1 m/S 754 mmHg 71%
    08:00 +28°C° 0,1 mm 1 m/S 754 mmHg 66%
    09:00 +29°C° 0,1 mm 2 m/S 754 mmHg 60%
    10:00 +30°C° 0 mm 1 m/S 754 mmHg 55%
    11:00 +31°C° 0 mm 1 m/S 754 mmHg 51%
    12:00 +33°C° 0 mm 1 m/S 754 mmHg 46%
    13:00 +32°C° 0,1 mm 2 m/S 754 mmHg 48%
    14:00 +32°C° 0,1 mm 2 m/S 754 mmHg 50%
    15:00 +31°C° 0,1 mm 2 m/S 754 mmHg 52%
    16:00 +30°C° 0,4 mm 2 m/S 754 mmHg 56%
    17:00 +29°C° 0,4 mm 2 m/S 754 mmHg 60%
    18:00 +28°C° 0,4 mm 2 m/S 754 mmHg 65%
    19:00 +27°C° 0,8 mm 2 m/S 755 mmHg 69%
    20:00 +26°C° 0,8 mm 1 m/S 755 mmHg 73%
    21:00 +25°C° 0,8 mm 1 m/S 756 mmHg 77%
    22:00 +24°C° 0 mm 1 m/S 756 mmHg 78%
    23:00 +24°C° 0 mm 1 m/S 756 mmHg 80%
    Mehr zeigen